Location: Bucaral
(10.5128°N, 67.0901°W)
Time: 07:16:33
(UTC+00:00)

NOAA 6 - Pass Details

Date: 18 April 2024
Orbit: 770 x 783 km, 98.6° (Epoch: 24 May)

Event Time Altitude Azimuth Distance (km) Brightness Sun altitude
Rises 23:04:10 0° 165° (SSE) 3,249 7.0 -6.8°
Reaches altitude 10° 23:06:29 10° 163° (SSE) 2,319 6.2 -7.3°
Maximum altitude 23:11:36 78° 77° (ENE) 791 4.0 -8.5°
Drops below altitude 10° 23:16:41 10° 351° (N) 2,310 6.8 -9.8°
Sets 23:18:59 0° 350° (N) 3,235 7.6 -10.3°
